FW4468 Weather Reports


time (UTC)temp
F
wind
direction
speed
knots
gust
knots
rain 1hr
in
rain 24hr
in
rain mn
in
humidity
%
barometer
mb
20260505121527 53 181 0.0 2.6 0.00 0.00 0.00 67 1012.6
20260505120039 53 145 0.0 2.6 0.00 0.00 0.00 67 1012.7
20260505114525 53 175 0.0 3.5 0.00 0.00 0.00 67 1012.6
20260505113024 53 155 1.7 5.2 0.00 0.00 0.00 68 1012.6
20260505111530 53 112 1.7 6.1 0.00 0.00 0.00 68 1012.5
20260505101516 52 128 0.0 2.6 0.00 0.00 0.00 69 1011.9
20260505100025 52 131 0.0 3.5 0.00 0.00 0.00 69 1012.0
20260505094517 53 140 0.0 2.6 0.00 0.00 0.00 69 1012.0
20260505093111 53 146 0.0 3.5 0.00 0.00 0.00 68 1011.8
20260505091511 53 74 0.0 2.6 0.00 0.00 0.00 68 1011.9
20260505090006 53 138 0.0 2.6 0.00 0.00 0.00 68 1011.7
20260505084508 53 149 0.0 3.5 0.00 0.00 0.00 67 1011.5
20260505083002 54 137 0.0 3.5 0.00 0.00 0.00 67 1011.5
20260505081605 54 128 0.0 3.5 0.00 0.00 0.00 67 1011.5
20260505080105 54 128 0.0 3.5 0.00 0.00 0.00 67 1011.3
20260505074556 54 159 0.0 4.3 0.00 0.00 0.00 67 1011.4
20260505073059 55 180 0.9 6.1 0.00 0.00 0.00 67 1011.2
20260505071605 55 137 0.9 4.3 0.00 0.00 0.00 66 1011.0
20260505070052 56 153 0.9 6.1 0.00 0.00 0.00 66 1011.1
20260505064545 56 159 2.6 6.1 0.00 0.00 0.00 66 1010.6
20260505063050 57 135 0.0 6.1 0.00 0.00 0.00 65 1010.6
20260505061540 57 120 1.7 7.8 0.00 0.00 0.00 64 1010.6
20260505060054 58 143 1.7 7.0 0.00 0.00 0.00 64 1010.4
20260505054536 59 166 1.7 7.0 0.00 0.00 0.00 63 1010.2
20260505053037 60 189 2.6 6.1 0.00 0.00 0.00 61 1010.0
20260505051530 61 122 0.9 7.0 0.00 0.00 0.00 60 1009.9
20260505041523 63 269 0.0 1.7 0.00 0.00 0.00 49 1009.4
20260505040024 64 5 0.0 0.9 0.00 0.00 0.00 48 1009.1
20260505034521 65 5 0.0 0.0 0.00 0.00 0.00 46 1009.0
20260505033021 67 5 0.0 0.0 0.00 0.00 0.00 43 1008.8
20260505031520 68 5 0.0 0.0 0.00 0.00 0.00 40 1008.7
20260505030020 69 5 0.0 1.7 0.00 0.00 0.00 37 1008.6
20260505024519 70 5 0.0 0.9 0.00 0.00 0.00 35 1008.5
20260505023018 71 71 0.9 3.5 0.00 0.00 0.00 35 1008.4
20260505021517 72 71 0.9 3.5 0.00 0.00 0.00 36 1008.5
20260505020023 73 57 0.0 4.3 0.00 0.00 0.00 35 1008.4
20260505014530 74 67 1.7 4.3 0.00 0.00 0.00 34 1008.4
20260505013015 75 57 1.7 6.1 0.00 0.00 0.00 35 1008.4
20260505011515 76 53 0.9 4.3 0.00 0.00 0.00 35 1008.5
20260505010014 77 58 1.7 5.2 0.00 0.00 0.00 35 1008.4
20260505004513 79 69 0.9 4.3 0.00 0.00 0.00 33 1008.5
20260505003011 80 146 0.0 3.5 0.00 0.00 0.00 31 1008.4
20260505001510 80 149 0.0 3.5 0.00 0.00 0.00 29 1008.3
20260505000011 80 141 2.6 5.2 0.00 0.00 0.00 28 1008.4
20260504234507 81 146 0.9 5.2 0.00 0.00 0.00 28 1008.4
20260504233006 81 118 2.6 5.2 0.00 0.00 0.00 28 1008.5
20260504231505 81 141 0.9 6.1 0.00 0.00 0.00 31 1008.5
20260504230006 83 183 2.6 5.2 0.00 0.00 0.00 27 1008.5
20260504224506 83 202 1.7 7.0 0.00 0.00 0.00 26 1008.7
20260504223125 82 180 2.6 6.1 0.00 0.00 0.00 27 1008.9
20260504221602 81 164 2.6 5.2 0.00 0.00 0.00 30 1009.0
20260504220058 80 188 0.9 6.1 0.00 0.00 0.00 29 1009.2
20260504214555 80 168 1.7 4.3 0.00 0.00 0.00 31 1009.4
20260504213056 79 199 1.7 6.1 0.00 0.00 0.00 32 1009.4
20260504211639 80 193 1.7 7.0 0.00 0.00 0.00 33 1009.7
20260504210053 79 162 0.9 5.2 0.00 0.00 0.00 34 1009.6
20260504204550 78 158 1.7 5.2 0.00 0.00 0.00 36 1009.7
20260504203049 77 173 2.6 6.1 0.00 0.00 0.00 36 1009.8
20260504201550 79 190 1.7 5.2 0.00 0.00 0.00 34 1009.8
20260504200045 77 158 1.7 6.1 0.00 0.00 0.00 35 1009.7
20260504194550 76 156 2.6 7.0 0.00 0.00 0.00 35 1009.7
20260504193042 76 209 1.7 6.1 0.00 0.00 0.00 32 1009.8
20260504191553 76 184 2.6 7.0 0.00 0.00 0.00 30 1009.9
20260504190045 76 140 1.7 7.0 0.00 0.00 0.00 28 1010.1
20260504184545 75 137 0.9 7.0 0.00 0.00 0.00 33 1010.0
20260504183033 74 102 2.6 7.0 0.00 0.00 0.00 35 1010.0
20260504181534 73 151 1.7 6.1 0.00 0.00 0.00 38 1010.0
20260504180027 71 216 2.6 5.2 0.00 0.00 0.00 39 1010.0
20260504174522 70 158 2.6 6.1 0.00 0.00 0.00 41 1010.2
20260504173020 70 195 2.6 5.2 0.00 0.00 0.00 41 1010.2
20260504171522 69 185 3.5 6.1 0.00 0.00 0.00 39 1010.2